Zurück zum Katalog

STARLINK-37221

AktivKommunikationSSO
NORAD 68668·PAYLOAD·🇺🇸 United States

Gestartet Apr 11, 2026 von Vandenberg Space Force Base

Loading…

Nächste Überflüge (nächste 24 Stunden)

TLE

AktuellSource: CelesTrak SupGP

Epoche: Sep 14, 2026, 15:52 UTC

1 68668C 26077G   26257.66159722 -.00025795  00000+0 -80081-3 0  2572
2 68668  97.2843 127.6513 0002024  89.8074 104.8123 15.33448798    10

Verfolge STARLINK-37221 in Echtzeit mit AllMySat

Download on the App Store